CAPE
0 0 0 0 0 0 42 28 33 32 40 0 0 240 101 112 315 386 10 0 0 12 119 356 452 1292 1533 1130 644 379 116 121 331 617 473 419 568 655 362 52 0 0 0 0 0 0 0 0 0
0 0 0 0 0 25 15 4 85 60 6 0 0 0 58 227 268 328 248 1 0 18 258 485 384 1069 1686 1439 793 408 323 273 542 686 516 514 588 432 116 0 0 0 0 0 0 4 56 55 42
0 0 0 0 0 0 0 2 5 0 0 0 0 9 157 390 314 671 654 1 0 7 163 877 367 780 1478 1662 976 593 540 159 418 573 483 413 399 207 42 0 0 0 0 47 288 341 237 161 175
0 0 0 0 0 0 25 0 0 0 0 0 0 21 150 579 501 900 632 8 0 0 30 1064 422 574 1189 1475 1059 739 431 279 356 433 321 259 181 134 9 0 0 0 128 343 229 20 0 0 0
0 0 0 0 0 0 2 1 0 0 0 0 0 23 177 1218 916 998 605 157 0 0 101 1104 351 425 742 1129 1030 809 341 245 221 323 249 161 149 68 0 0 0 0 235 58 0 0 0 0 0
0 0 0 0 0 0 0 0 0 0 0 0 0 11 768 1144 1029 836 715 309 8 0 377 927 525 375 433 710 856 527 260 207 214 245 196 233 163 64 0 0 0 43 77 0 0 0 0 0 0
0 0 0 0 0 0 0 0 0 0 0 0 0 55 1191 1182 1321 906 741 415 54 0 317 641 457 483 379 318 277 158 122 98 172 155 186 255 138 24 0 0 0 27 0 0 0 0 0 0 0
0 0 0 0 0 0 0 0 0 0 0 0 0 36 813 1509 1349 1097 839 479 70 7 139 194 210 205 77 188 138 72 70 109 149 160 220 214 100 1 0 0 0 0 0 0 0 0 0 0 0
0 0 0 0 0 0 0 0 0 0 0 0 0 0 522 1679 1341 1264 997 588 131 9 46 69 81 73 3 5 288 193 151 167 191 215 264 140 5 0 3 0 0 0 0 0 0 0 0 0 0
0 0 0 0 0 0 0 0 0 0 0 0 0 0 266 1258 1667 1495 1331 980 337 38 26 57 27 42 0 0 220 37 57 73 58 47 185 61 0 4 46 6 0 0 0 0 0 0 0 0 0
0 0 0 0 0 0 0 0 0 0 0 0 0 0 9 776 1508 1507 1315 1225 756 68 20 63 46 101 2 3 370 0 2 5 47 77 146 107 0 1 11 43 6 0 0 0 0 0 0 0 0
0 0 0 0 0 0 0 0 0 0 0 0 0 0 0 149 980 1286 1253 1101 843 359 71 81 103 173 70 7 153 110 0 14 10 57 152 240 41 0 0 3 9 4 0 0 0 0 0 0 0
0 0 0 0 0 0 0 0 0 0 0 0 0 0 0 0 266 735 935 1106 1033 706 405 253 232 336 350 325 145 187 35 49 39 83 164 205 53 0 0 14 8 60 36 1 0 0 0 0 0
0 0 0 0 0 0 0 0 0 0 0 0 0 0 0 0 1 646 990 886 1003 1167 880 734 455 763 762 653 512 283 314 183 135 92 94 291 63 0 0 65 142 196 227 34 0 0 0 0 0
0 0 0 0 0 0 0 0 0 0 0 0 0 0 0 0 443 1082 1124 1300 1393 1619 1368 1208 944 1055 1213 928 824 720 562 417 304 133 101 157 185 12 18 53 262 318 874 430 0 0 0 0 0
0 0 0 0 0 0 0 0 0 0 0 0 0 0 0 0 14 111 615 1015 1369 1589 1843 1707 1432 1292 1689 1424 1182 911 726 659 487 360 221 181 188 136 183 55 138 296 946 678 9 0 0 0 0
0 0 0 0 0 0 0 0 0 0 0 0 0 0 0 0 0 0 0 0 124 1070 1749 1960 1966 1599 1707 2021 1591 1359 1099 897 701 534 449 367 227 136 130 37 7 361 572 568 155 1 0 0 0
0 0 0 0 0 0 0 0 0 0 0 0 0 0 0 0 0 10 60 198 0 0 1168 1826 2039 2250 2256 2195 2162 1681 1390 1121 877 667 571 494 321 141 219 52 56 325 458 605 311 1 0 0 0
0 0 0 0 0 0 0 0 0 0 0 0 0 0 0 0 0 0 27 258 581 58 147 1364 1741 2399 2324 2159 2261 1945 1584 1310 1235 1063 806 610 444 208 242 171 149 371 482 631 302 30 0 0 0
0 0 0 0 0 0 0 0 0 0 0 0 0 0 0 0 0 18 92 369 634 895 520 914 1783 2136 2631 2388 2348 2069 1802 1314 1264 806 639 614 327 214 226 205 115 300 406 740 263 96 44 0 0
0 0 0 0 0 0 0 0 0 0 0 0 0 0 0 0 0 103 350 709 821 1004 1025 989 936 1892 2454 2490 2420 2235 1870 1475 1208 1122 920 719 524 419 286 293 188 283 534 655 402 215 57 0 0
0 0 0 0 0 0 0 0 0 0 0 0 0 0 0 0 39 245 577 849 949 1095 1372 1471 773 1329 2127 2519 2306 2459 2050 1808 1248 1555 1109 880 671 500 425 341 400 340 539 737 523 268 157 0 0
0 0 0 0 0 0 0 0 0 0 0 0 0 4 0 22 39 158 443 614 775 1109 1491 1839 2278 1740 2078 2120 2283 2180 2210 1844 1727 1307 1369 1293 1021 608 292 336 297 410 900 967 859 394 234 97 0
0 0 0 0 0 0 0 0 0 3 0 5 41 6 0 0 12 38 55 152 315 593 1050 1548 2047 2539 2476 2091 1906 1902 2173 2122 1784 1719 1482 1266 1137 1016 653 392 481 514 1085 1136 631 374 242 145 14
0 0 0 0 0 0 0 1 0 148 63 29 59 6 0 0 6 0 0 0 51 121 208 424 824 1144 1607 2211 2176 1808 1829 1755 1888 1943 2035 1649 1437 1298 1260 815 738 1148 1479 1280 562 432 177 131 52
2 1 6 6 23 22 10 0 158 110 170 111 111 23 0 6 1 0 0 0 0 0 1 1 0 25 384 884 1302 1810 2179 1711 1565 1790 1795 2055 1939 1718 1680 1289 1519 1377 1075 836 500 369 176 75 96
0 0 0 0 0 5 34 157 154 105 117 110 59 0 0 0 0 0 0 0 0 0 0 0 0 0 0 21 199 918 1367 1389 1971 2152 2021 1981 2025 1827 1879 1453 1348 973 760 621 396 280 120 101 80
0 0 3 2 0 0 0 0 0 126 95 86 5 0 0 0 0 0 0 0 0 0 0 0 1 0 0 0 6 71 513 1284 863 1068 1587 1823 1885 1456 1323 1222 1066 837 697 547 327 172 65 81 65
1 0 3 16 5 23 17 6 39 77 0 0 9 0 0 0 0 0 0 0 0 0 0 0 0 0 0 0 0 0 22 304 847 828 1031 1282 1435 1351 1153 1157 1119 851 464 326 264 177 130 37 14
1 33 29 38 46 42 46 27 42 32 0 0 0 0 0 0 0 0 0 0 0 0 0 0 0 0 0 0 0 0 0 3 230 349 1078 557 1252 1277 1178 925 715 607 366 370 119 161 102 58 32
CIN
-0 -0 -0 -0 -0 -0 -29 -49 -32 -28 -29 -0 -1 -9 -22 -88 -6 -32 -46 -0 -0 -157 -458 -454 -428 -241 -201 -224 -235 -258 -372 -356 -212 -147 -149 -139 -105 -81 -113 -211 -0 -0 -0 -0 -0 -0 -0 -0 -0
-0 -0 -0 -0 -0 -7 -22 -45 -11 -23 -64 -0 -0 -0 -9 -3 -6 -48 -67 -11 -0 -159 -385 -354 -469 -268 -154 -175 -227 -263 -262 -242 -127 -113 -129 -112 -83 -93 -179 -0 -0 -0 -0 -0 -0 -116 -260 -258 -280
-0 -0 -0 -0 -0 -1 -9 -4 -102 -0 -0 -0 -0 -33 -5 -4 -27 -5 -88 -11 -0 -411 -371 -285 -468 -312 -168 -120 -205 -231 -195 -338 -166 -132 -142 -146 -127 -161 -260 -0 -0 -0 -0 -201 -103 -91 -145 -199 -196
-0 -0 -0 -0 -0 -0 -4 -0 -0 -0 -0 -0 -0 -11 -19 -38 -35 -47 -105 -237 -0 -0 -386 -345 -442 -370 -221 -135 -175 -204 -235 -259 -189 -156 -179 -189 -219 -230 -337 -0 -0 -0 -180 -61 -122 -339 -9 -10 -0
-0 -0 -0 -0 -0 -0 -4 -0 -0 -0 -0 -0 -0 -5 -5 -39 -88 -92 -123 -163 -0 -0 -304 -316 -452 -388 -300 -208 -168 -165 -251 -265 -262 -179 -199 -230 -241 -319 -0 -0 -0 -0 -118 -271 -0 -0 -0 -0 -0
-0 -0 -0 -0 -0 -0 -0 -0 -0 -0 -0 -0 -0 -7 -8 -83 -96 -94 -120 -147 -211 -0 -271 -311 -421 -407 -353 -263 -220 -226 -276 -296 -267 -219 -228 -180 -216 -340 -0 -0 -0 -240 -279 -0 -0 -0 -0 -0 -0
-0 -0 -0 -0 -0 -0 -0 -0 -0 -0 -0 -0 -0 -10 -14 -43 -111 -129 -127 -135 -199 -0 -271 -357 -389 -383 -372 -349 -345 -395 -391 -400 -304 -293 -242 -178 -249 -455 -0 -0 -0 -378 -0 -0 -0 -0 -0 -0 -0
-0 -0 -0 -0 -0 -0 -0 -0 -0 -0 -0 -0 -0 -18 -43 -55 -119 -132 -110 -118 -192 -368 -269 -376 -382 -394 -493 -407 -433 -486 -465 -374 -321 -297 -231 -226 -303 -128 -0 -0 -0 -0 -0 -0 -0 -0 -0 -0 -0
-0 -0 -0 -0 -0 -0 -0 -0 -0 -0 -0 -0 -0 -0 -27 -63 -115 -88 -88 -108 -149 -253 -313 -370 -362 -420 -103 -514 -337 -374 -368 -337 -294 -260 -221 -278 -146 -0 -135 -0 -0 -0 -0 -0 -0 -0 -0 -0 -0
-0 -0 -0 -0 -0 -0 -0 -0 -0 -0 -0 -0 -0 -0 -123 -56 -59 -62 -60 -76 -121 -233 -316 -307 -390 -386 -39 -17 -312 -467 -424 -420 -412 -382 -216 -302 -0 -247 -236 -154 -0 -0 -0 -0 -0 -0 -0 -0 -0
-0 -0 -0 -0 -0 -0 -0 -0 -0 -0 -0 -0 -0 -0 -10 -62 -32 -17 -18 -28 -91 -262 -265 -254 -346 -270 -72 -377 -224 -76 -369 -455 -395 -320 -218 -231 -0 -279 -341 -251 -127 -0 -0 -0 -0 -0 -0 -0 -0
-0 -0 -0 -0 -0 -0 -0 -0 -0 -0 -0 -0 -0 -0 -0 -104 -36 -24 -1 -3 -52 -110 -180 -166 -217 -220 -245 -273 -196 -241 -0 -325 -354 -288 -223 -161 -255 -0 -0 -68 -123 -247 -1 -0 -0 -0 -0 -0 -0
-0 -0 -0 -0 -0 -0 -0 -0 -0 -0 -0 -0 -0 -0 -0 -0 -50 -32 -8 -5 -3 -42 -105 -138 -160 -185 -179 -136 -169 -146 -214 -202 -221 -211 -204 -176 -218 -0 -0 -193 -126 -136 -205 -0 -0 -0 -0 -0 -0
-0 -0 -0 -0 -0 -0 -0 -0 -0 -0 -0 -0 -0 -0 -0 -0 -4 -15 -46 -50 -37 -7 -80 -104 -145 -165 -174 -150 -134 -152 -144 -139 -159 -198 -197 -187 -211 -0 -0 -133 -67 -32 -41 -111 -0 -0 -0 -0 -0
-0 -0 -0 -0 -0 -0 -0 -0 -0 -0 -0 -0 -0 -0 -0 -0 -4 -3 -8 -64 -60 -52 -34 -93 -116 -129 -158 -169 -140 -143 -123 -135 -160 -171 -210 -206 -215 -257 -210 -154 -47 -18 -5 -13 -0 -0 -0 -0 -0
-0 -0 -0 -0 -0 -0 -0 -0 -0 -0 -0 -0 -0 -0 -0 -0 -0 -15 -9 -17 -53 -73 -71 -62 -64 -86 -114 -119 -129 -121 -113 -121 -118 -140 -164 -225 -225 -225 -200 -196 -102 -14 -4 -5 -72 -0 -0 -0 -0
-0 -0 -0 -0 -0 -0 -0 -0 -0 -0 -0 -0 -0 -0 -0 -0 -0 -0 -0 -0 -50 -69 -51 -73 -76 -79 -77 -102 -95 -104 -89 -108 -103 -116 -142 -219 -218 -242 -222 -233 -180 -54 -1 -6 -108 -1 -0 -0 -0
-0 -0 -0 -0 -0 -0 -0 -0 -0 -0 -0 -0 -0 -0 -0 -0 -0 -207 -129 -138 -0 -0 -83 -77 -90 -90 -68 -72 -64 -74 -83 -99 -109 -118 -126 -162 -214 -227 -237 -244 -235 -107 -29 -7 -57 -20 -0 -0 -0
-0 -0 -0 -0 -0 -0 -0 -0 -0 -0 -0 -0 -0 -0 -0 -0 -0 -0 -184 -141 -138 -123 -184 -102 -110 -80 -72 -83 -76 -97 -108 -97 -124 -180 -162 -166 -273 -291 -257 -252 -245 -122 -57 -6 -62 -234 -0 -0 -0
-0 -0 -0 -0 -0 -0 -0 -0 -0 -0 -0 -0 -0 -0 -0 -0 -0 -228 -143 -137 -138 -154 -219 -134 -117 -104 -70 -68 -77 -78 -89 -100 -119 -197 -224 -200 -268 -281 -271 -256 -240 -166 -87 -12 -112 -196 -175 -0 -0
-0 -0 -0 -0 -0 -0 -0 -0 -0 -0 -0 -0 -0 -0 -0 -0 -0 -121 -85 -89 -113 -142 -140 -152 -189 -129 -88 -75 -60 -70 -87 -96 -81 -117 -230 -278 -319 -314 -306 -266 -203 -173 -104 -39 -101 -143 -187 -0 -0
-0 -0 -0 -0 -0 -0 -0 -0 -0 -0 -0 -0 -0 -0 -0 -0 -100 -45 -44 -75 -83 -112 -96 -68 -213 -147 -94 -63 -65 -45 -69 -67 -96 -86 -151 -203 -303 -335 -343 -338 -267 -212 -137 -21 -55 -98 -117 -0 -0
-0 -0 -0 -0 -0 -0 -0 -0 -0 -0 -0 -0 -0 -2 -0 -107 -111 -56 -41 -88 -104 -94 -85 -83 -35 -58 -42 -55 -64 -54 -61 -52 -41 -87 -65 -137 -244 -317 -362 -323 -267 -216 -94 -56 -6 -65 -109 -119 -0
-0 -0 -0 -0 -0 -0 -0 -0 -0 -2 -0 -8 -4 -2 -0 -0 -73 -95 -98 -127 -138 -149 -120 -99 -59 -23 -27 -39 -64 -75 -47 -47 -42 -35 -74 -109 -156 -218 -280 -333 -269 -230 -99 -44 -86 -100 -131 -145 -199
-0 -0 -0 -5 -5 -0 -0 -4 -0 -70 -39 -11 -2 -15 -0 -0 -23 -0 -0 -0 -160 -190 -192 -171 -150 -113 -72 -20 -21 -56 -48 -52 -44 -16 -19 -45 -56 -116 -144 -227 -201 -114 -77 -67 -137 -165 -209 -190 -171
-12 -7 -8 -11 -9 -9 -29 -1 -26 -95 -121 -49 -15 -81 -0 -31 -3 -0 -0 -0 -0 -0 -28 -35 -9 -168 -192 -117 -62 -21 -9 -37 -54 -38 -21 -11 -15 -22 -27 -137 -76 -110 -149 -145 -180 -201 -236 -248 -174
-0 -0 -7 -0 -1 -16 -8 -28 -71 -85 -100 -111 -84 -0 -0 -0 -0 -0 -0 -0 -0 -0 -0 -0 -0 -0 -0 -294 -232 -81 -33 -57 -8 -2 -10 -8 -18 -24 -12 -61 -64 -145 -196 -222 -291 -280 -346 -270 -259
-0 -0 -7 -3 -0 -0 -0 -9 -0 -10 -11 -15 -46 -0 -0 -0 -0 -0 -0 -0 -0 -0 -0 -0 -1 -0 -0 -0 -141 -207 -104 -15 -105 -95 -23 -5 -8 -23 -48 -41 -86 -129 -170 -224 -266 -311 -315 -275 -303
-12 -0 -4 -6 -8 -5 -5 -8 -3 -6 -0 -0 -5 -0 -0 -0 -0 -0 -0 -0 -0 -0 -0 -0 -0 -0 -0 -0 -0 -0 -163 -93 -35 -57 -47 -19 -13 -16 -51 -26 -37 -78 -164 -190 -207 -223 -237 -324 -329
-2 -23 -27 -13 -6 -4 -3 -7 -9 -64 -0 -0 -0 -0 -0 -0 -0 -0 -0 -0 -0 -0 -0 -0 -0 -0 -0 -0 -0 -0 -0 -28 -62 -93 -2 -92 -3 -6 -1 -26 -53 -89 -142 -129 -220 -219 -220 -224 -246
Wind_Speed
25 24 24 24 22 3 11 12 13 15 12 17 16 21 16 23 13 13 5 5 8 12 19 19 19 21 25 24 25 25 24 24 25 25 25 25 24 22 21 20 19 16 16 15 15 15 15 16 16
25 25 26 25 26 26 12 9 14 16 17 17 11 21 20 13 11 4 3 4 9 12 19 20 18 19 21 23 23 24 24 22 23 23 23 23 22 21 20 19 18 16 14 14 14 14 15 15 15
24 25 26 31 31 29 10 13 14 15 17 17 14 14 16 12 11 9 6 2 9 10 16 16 17 16 17 19 21 21 21 22 21 21 22 22 21 20 19 18 17 16 15 14 14 14 14 15 15
19 13 25 26 31 26 18 12 14 16 14 17 16 13 12 13 13 12 7 2 6 11 14 14 14 14 14 14 16 17 18 19 20 20 20 20 20 19 18 17 16 15 15 15 13 14 14 14 15
17 24 27 27 26 33 15 16 17 18 18 18 16 14 13 13 14 12 8 1 4 9 11 12 13 12 11 10 10 12 14 15 17 17 17 18 18 18 17 17 16 15 15 14 13 12 13 13 13
22 23 26 25 27 25 25 17 21 21 18 17 19 17 11 12 13 13 6 3 6 8 9 11 11 10 10 10 9 9 10 10 11 12 14 14 15 16 16 15 15 15 14 13 13 12 12 13 13
26 26 26 29 30 23 18 17 24 21 21 18 20 21 10 10 11 10 6 5 6 8 6 9 11 9 8 8 8 7 6 7 7 8 10 10 11 13 14 14 14 14 13 14 15 13 12 14 14
30 32 33 29 28 29 22 20 25 22 20 18 18 19 17 8 7 6 3 4 5 5 5 7 9 9 9 7 6 6 6 4 5 6 6 8 10 11 11 12 13 13 13 15 16 13 11 13 15
20 32 29 27 22 21 19 21 21 19 24 22 20 25 18 11 7 6 3 4 4 4 5 6 7 7 7 6 5 4 4 3 3 4 6 8 8 10 10 11 12 13 12 13 15 12 10 11 11
22 16 24 25 23 17 20 18 23 22 26 21 16 17 20 14 8 5 4 3 2 6 8 6 6 6 6 4 3 3 1 1 1 2 4 6 11 11 8 11 13 13 11 11 13 15 10 11 10
15 24 26 23 16 24 31 27 20 26 29 24 20 16 17 16 12 10 6 5 4 3 5 6 6 6 7 5 3 5 5 5 5 3 4 6 12 14 15 13 14 12 10 9 12 13 10 17 19
8 5 16 25 14 11 9 18 26 19 28 28 19 22 24 16 16 15 10 5 2 5 7 8 9 8 6 4 4 4 6 4 6 3 4 11 14 14 16 16 13 15 11 17 19 19 19 20 18
14 16 21 20 17 14 15 6 22 23 11 26 26 26 26 20 16 17 14 12 5 3 6 5 6 6 7 4 3 4 5 6 6 7 6 7 11 14 15 19 20 17 16 17 18 20 19 18 17
19 22 25 17 16 14 16 14 9 21 16 7 18 25 22 19 15 13 15 15 15 6 4 8 10 6 5 6 3 4 6 8 9 8 9 7 12 13 15 15 17 19 18 18 20 18 19 18 19
24 29 24 17 18 16 17 18 8 5 13 4 15 13 20 19 16 12 13 17 15 11 5 6 9 8 7 7 6 4 4 7 7 11 11 10 12 16 16 15 17 19 18 18 20 20 18 19 17
20 22 26 17 11 13 15 28 9 7 4 4 12 11 12 16 17 16 15 15 14 12 9 6 5 7 7 6 5 5 3 5 7 9 10 11 13 17 15 19 18 21 17 18 18 18 19 19 18
19 28 21 23 13 18 12 23 22 7 9 11 10 3 4 10 13 18 19 20 19 14 12 8 7 7 7 6 5 5 4 7 8 10 11 11 13 13 18 18 19 20 23 21 18 17 19 18 19
23 23 27 22 13 17 20 22 26 13 13 13 13 11 10 9 11 16 17 17 19 21 15 14 12 12 11 8 9 8 7 7 8 12 13 13 15 16 14 22 21 18 19 22 18 20 18 20 17
36 32 30 23 21 23 23 26 21 20 19 18 15 14 14 15 15 17 18 18 19 18 20 15 16 15 14 11 11 11 11 8 10 14 16 14 6 15 17 19 18 21 22 22 16 17 18 19 18
31 32 32 30 25 25 29 29 27 24 20 19 17 11 12 16 16 19 20 19 19 20 20 20 18 17 16 15 15 13 12 12 12 9 11 6 5 6 20 20 21 18 20 17 15 15 18 16 16
29 31 30 30 23 27 31 34 26 22 17 15 16 14 14 17 19 20 19 20 21 22 22 22 23 19 17 18 16 16 18 19 12 9 9 5 3 8 24 19 20 20 17 14 13 15 16 19 16
34 28 30 31 29 33 21 36 26 20 18 16 15 16 15 16 16 17 18 19 20 22 23 23 22 21 20 19 21 19 20 19 17 15 14 14 12 14 12 14 14 20 18 21 16 14 14 16 20
32 30 26 30 33 33 28 30 36 13 18 17 15 14 13 13 15 17 18 19 21 21 21 22 23 21 23 23 24 25 24 25 21 20 20 16 14 12 12 12 16 18 21 19 17 14 14 15 17
27 29 30 28 30 38 34 33 29 22 17 14 14 14 13 13 14 16 17 19 20 22 22 22 22 22 23 24 25 26 31 28 28 23 21 21 19 17 15 14 14 12 12 13 12 16 17 18 20
25 27 32 33 34 41 32 32 29 12 7 9 12 12 13 14 15 17 19 20 20 22 22 22 22 23 24 24 23 24 26 30 30 30 25 24 20 20 19 17 16 14 13 13 13 14 14 17 19
27 27 34 38 36 37 33 31 15 11 9 9 10 12 13 14 15 18 19 20 20 21 22 23 23 23 23 23 24 25 27 26 27 29 31 28 26 22 17 14 13 13 12 12 14 15 16 17 18
30 32 27 33 39 36 24 11 10 9 11 11 12 13 15 16 16 19 19 20 21 22 22 24 24 23 24 24 25 25 26 28 28 27 27 24 20 18 13 14 14 15 14 13 15 17 18 17 18
26 26 29 31 39 42 35 23 26 15 16 13 12 14 16 18 18 19 20 20 21 22 23 23 24 24 24 25 25 26 27 26 27 30 29 22 20 18 17 17 18 16 15 15 17 18 18 20 20
20 26 29 32 29 36 39 39 21 21 17 15 12 16 18 21 22 23 24 24 25 25 26 25 26 26 26 27 27 27 27 26 27 26 26 28 25 22 20 18 17 16 16 16 17 19 20 21 21
28 29 20 29 30 32 40 39 17 17 19 21 17 17 18 20 22 23 25 26 27 28 29 29 29 30 28 28 28 28 29 28 27 27 26 26 26 21 18 17 21 21 18 18 19 18 19 19 20
Wind_Direction
280 256 263 261 239 81 335 333 352 1 14 311 308 234 278 239 323 263 28 351 91 103 116 117 114 117 124 121 122 123 120 117 116 114 117 118 118 120 117 116 120 134 137 141 145 151 154 153 150
242 274 272 261 247 226 330 355 301 326 340 304 48 246 262 300 342 340 333 354 91 101 117 120 118 116 118 121 120 121 121 113 112 114 112 112 116 121 121 118 120 129 145 146 150 152 154 154 151
235 263 270 247 234 236 335 309 309 320 325 317 316 286 284 298 310 302 325 7 95 102 118 118 121 115 114 117 119 118 117 117 113 112 115 112 109 112 117 119 119 120 126 140 145 154 158 156 149
295 314 272 274 252 263 303 336 310 307 336 313 328 307 297 311 300 297 309 43 109 109 120 121 122 117 113 110 113 115 113 114 115 114 111 113 109 108 112 114 116 117 112 118 141 145 150 151 155
182 266 273 273 274 250 310 306 305 299 304 315 300 321 306 308 293 303 310 26 122 116 120 124 127 122 115 110 108 109 110 107 110 111 108 109 109 106 110 110 104 107 111 108 117 146 155 156 160
274 265 275 277 274 275 277 298 286 288 304 312 292 294 319 307 293 291 328 94 121 122 119 128 131 128 123 117 113 109 107 100 92 90 95 92 97 98 111 107 97 91 97 93 91 137 173 192 185
269 267 277 275 274 284 290 297 273 283 289 304 288 272 336 303 298 300 312 91 120 122 121 134 136 133 128 123 119 114 104 96 85 81 77 49 52 62 79 110 101 90 90 77 63 96 192 216 222
252 257 267 278 281 277 290 290 275 280 286 307 291 281 290 293 309 326 21 81 116 130 131 142 145 142 139 133 129 122 110 92 76 66 43 28 21 33 68 105 100 82 88 48 43 79 169 219 238
291 254 272 280 291 291 296 295 287 290 279 283 289 271 310 293 336 327 9 89 112 134 143 154 159 160 153 146 147 136 123 96 47 19 356 355 20 23 29 44 47 56 72 63 38 67 128 172 151
188 179 205 285 297 303 299 299 285 289 277 282 294 292 288 297 323 334 301 273 148 147 148 147 169 174 178 184 198 175 207 286 1 9 360 356 334 343 311 8 14 27 56 68 48 20 111 144 114
177 204 226 303 308 291 266 279 300 284 274 276 282 289 284 287 294 298 314 280 265 202 177 158 160 175 187 215 241 252 271 285 297 317 332 339 319 327 326 350 357 10 53 68 48 40 113 327 303
205 290 307 296 322 315 316 207 221 298 277 272 280 282 283 286 283 284 291 289 290 209 181 164 154 160 188 213 232 253 268 280 294 303 316 313 310 317 319 326 346 347 9 331 329 322 325 316 329
300 299 301 303 303 309 310 299 214 214 300 279 280 280 277 279 280 280 289 298 298 239 235 211 182 177 173 227 215 252 259 278 290 301 302 309 315 316 318 309 309 325 336 332 324 318 324 333 340
298 297 291 305 304 302 300 301 207 209 197 218 290 280 280 282 280 277 284 292 294 288 200 250 167 191 200 197 252 249 272 283 289 294 299 297 304 310 316 318 318 313 322 320 316 324 321 330 326
292 290 295 292 296 300 303 297 230 263 186 159 186 291 283 289 288 287 285 287 294 296 285 229 174 172 187 186 199 250 269 275 281 290 292 294 296 299 305 311 312 310 318 317 314 315 321 318 332
293 291 290 294 280 293 294 288 292 267 226 298 179 173 298 289 294 298 289 289 292 295 285 271 220 196 205 206 223 200 236 278 284 290 291 287 291 291 300 297 302 298 316 317 313 317 317 314 322
286 284 287 290 293 294 285 293 287 307 300 302 302 242 296 309 299 296 298 294 289 290 289 279 264 253 234 245 232 260 261 279 287 290 291 285 284 286 287 295 296 299 295 302 310 317 315 320 317
283 282 283 286 287 290 284 285 285 298 294 297 294 288 290 306 331 306 302 306 300 287 286 285 278 271 270 263 268 279 279 277 277 292 289 289 282 280 284 283 288 298 301 297 307 306 317 314 325
277 282 285 289 284 287 285 281 284 287 286 289 287 286 283 289 315 307 305 307 309 305 290 283 280 277 273 264 272 276 276 277 285 300 308 287 269 283 284 289 294 292 295 298 310 311 314 316 319
276 280 279 283 287 285 283 281 281 283 283 282 283 278 292 297 302 303 303 306 307 306 302 290 283 278 275 275 279 282 283 281 285 301 306 287 229 280 277 284 286 294 299 303 309 312 312 319 320
276 276 280 280 285 285 283 279 278 281 279 283 288 294 296 297 302 305 308 306 305 304 303 299 287 280 276 277 281 284 285 287 277 278 297 278 212 262 273 280 285 288 300 303 308 309 308 310 315
275 278 279 280 277 278 279 278 273 266 269 276 279 283 293 303 311 315 314 312 315 309 308 305 298 284 279 277 278 280 280 281 275 283 280 282 274 282 283 282 286 288 293 291 302 307 307 309 304
276 280 280 278 277 279 277 280 291 241 257 262 279 289 298 311 315 318 320 318 319 320 318 314 308 296 285 282 278 280 279 282 282 278 280 277 273 271 266 272 285 288 286 294 300 304 302 308 305
284 283 280 280 276 272 272 274 279 267 246 251 273 292 301 311 319 324 327 326 325 325 322 321 314 312 305 289 282 279 278 281 281 282 280 277 277 274 269 268 272 274 280 283 290 297 299 300 305
280 278 273 271 269 271 276 270 276 282 284 257 275 295 304 310 316 321 322 325 327 328 328 328 321 314 311 306 298 286 284 280 281 282 284 282 279 277 272 267 268 270 275 281 286 290 295 300 301
279 272 269 271 272 278 287 264 261 267 265 276 293 304 311 315 318 322 323 326 329 330 329 330 328 322 318 313 308 301 291 288 285 283 281 286 283 282 275 264 262 270 272 274 282 291 293 293 295
274 275 282 281 275 278 282 285 287 273 271 270 283 297 303 308 316 319 325 324 326 326 326 323 323 325 324 321 314 309 304 296 291 289 289 285 288 285 278 271 271 272 270 272 277 281 280 280 282
281 285 276 274 271 268 271 280 279 281 289 279 284 292 302 304 309 314 320 324 327 327 328 326 321 323 324 324 322 316 312 306 300 291 288 288 284 280 278 277 276 272 271 273 277 281 276 272 274
289 279 274 278 272 271 270 269 285 282 291 293 306 306 303 302 302 306 309 313 313 316 319 320 317 317 318 317 318 318 317 315 307 302 294 289 283 281 279 277 279 281 281 284 286 290 290 284 279
283 281 292 277 272 274 272 277 292 283 282 290 306 305 311 311 310 313 312 312 312 313 312 311 311 312 313 311 312 312 312 312 313 308 301 295 286 279 274 275 284 286 284 289 291 296 297 289 282